McFarland, CA (93250)

9:41 AM PST on December 04, 2016 (GMT -0800)
Delano | | Change Station

Elev 335 ft 35.77 °N, 119.24 °W | Updated 12 seconds ago

Haze
Haze
50.0 °F
Feels Like 50.0 °F
N
2.0
Wind Variable Wind from South

Today
High -- | Low -- °F
--% Chance of Precip.
Yesterday
High -- | Low -- °F
Precip. -- in
Pressure 30.20 in
Visibility 5.0 miles
Clouds Clear
Dew Point 41 °F
Humidity 73%
Rainfall 0.00 in
Snow Depth Not available.
6:51 AM 4:43 PM
Waxing Crescent, 24% visible
METAR KBFL 041654Z 00000KT 5SM HZ CLR 07/02 A3019 RMK AO2 SLP225 T00720022
Pressure 30.20 in
Visibility 5.0 miles
Clouds Clear
Dew Point 41 °F
Humidity 73%
Rainfall 0.00 in
Snow Depth Not available.
6:51 AM 4:43 PM
Waxing Crescent, 24% visible
METAR KBFL 041654Z 00000KT 5SM HZ CLR 07/02 A3019 RMK AO2 SLP225 T00720022

10-Day Weather Forecast

Almanac

Astronomy

Dec. 04, 2016 Rise Set
Actual Time
Civil Twilight
Nautical Twilight
Astronomical Twilight
Moon
Length of Visible Light
Length of Day
Tomorrow will be .
, % of the Moon is Illuminated

Today's Extremes

State Highs State Lows

Community

WunderPhotos

Upload Photos

1,955,635 photos uploaded!

WunderBlog® & News

Nearby

Air Quality

  Air Quality AQ Index Pollutant
Not available.

Snow Depth

Station Depth Elevation

Earthquake Activity

City Distance Mag. Time & Date
Minimum magnitude displayed is 2.5.

Coastal Water Temperatures

Place Temperature

Stations

Nearby Weather Stations

Station Location Temp. Windchill Dew Point Humidity Wind Precip. Elev Updated Type
                   

Watches & Warnings

There are currently no watches in effect.